Time,TemperatureF,DewpointF,PressureIn,WindDirection,WindDirectionDegrees,WindSpeedMPH,WindSpeedGustMPH,Humidity,HourlyPrecipIn,Conditions,Clouds,dailyrainin,SoftwareType,DateUTC
2013-05-08 00:01:00,61.5,25.4,34.55,North,350,6.3,12.3,25,0.00,,BKN200,0.00,VWS V14.00,2013-05-08 06:01:00,
2013-05-08 00:06:00,61.2,25.1,34.55,North,357,7.6,15.4,25,0.00,,BKN200,0.00,VWS V14.00,2013-05-08 06:06:00,
2013-05-08 00:11:00,61.0,24.9,34.55,North,357,10.5,15.4,25,0.00,,BKN200,0.00,VWS V14.00,2013-05-08 06:11:00,
2013-05-08 00:16:00,60.8,24.8,34.55,NNW,329,10.5,15.4,25,0.00,,BKN200,0.00,VWS V14.00,2013-05-08 06:16:00,
2013-05-08 00:21:00,60.6,25.6,34.55,NNW,328,4.0,15.4,26,0.00,,BKN200,0.00,VWS V14.00,2013-05-08 06:21:00,
2013-05-08 00:26:00,60.4,26.3,34.55,North,2,3.1,15.4,27,0.00,,BKN200,0.00,VWS V14.00,2013-05-08 06:26:00,
2013-05-08 00:31:00,60.1,26.9,34.55,NNW,344,5.8,8.3,28,0.00,,BKN200,0.00,VWS V14.00,2013-05-08 06:31:00,
2013-05-08 00:36:00,59.9,27.6,34.55,North,349,8.3,9.6,29,0.00,,BKN200,0.00,VWS V14.00,2013-05-08 06:36:00,
2013-05-08 00:41:00,59.7,28.3,34.55,NNE,15,4.5,15.4,30,0.00,,BKN200,0.00,VWS V14.00,2013-05-08 06:41:00,
2013-05-08 00:46:00,59.5,28.9,34.55,NNW,342,5.4,15.4,31,0.00,,BKN200,0.00,VWS V14.00,2013-05-08 06:46:00,
2013-05-08 00:51:00,59.4,29.5,34.55,NNE,14,7.6,15.4,32,0.00,,BKN200,0.00,VWS V14.00,2013-05-08 06:51:00,
2013-05-08 00:56:00,59.4,30.3,34.55,ENE,75,7.6,15.4,33,0.00,,BKN200,0.00,VWS V14.00,2013-05-08 06:56:00,
2013-05-08 01:01:00,59.2,30.1,34.55,NNE,27,8.1,11.0,33,0.00,,BKN200,0.00,VWS V14.00,2013-05-08 07:01:00,
2013-05-08 01:06:00,59.2,30.9,34.55,ENE,59,8.3,15.4,34,0.00,,BKN200,0.00,VWS V14.00,2013-05-08 07:06:00,
2013-05-08 01:11:00,59.2,30.9,34.55,NNE,19,5.4,15.4,34,0.00,,BKN200,0.00,VWS V14.00,2013-05-08 07:11:00,
2013-05-08 01:16:00,59.0,30.7,34.55,NNE,27,15.0,15.4,34,0.00,,BKN200,0.00,VWS V14.00,2013-05-08 07:16:00,
2013-05-08 01:21:00,58.6,31.1,34.55,North,5,10.5,15.4,35,0.00,,BKN200,0.00,VWS V14.00,2013-05-08 07:21:00,
2013-05-08 01:26:00,58.5,30.9,34.55,NE,41,10.5,15.4,35,0.00,,BKN200,0.00,VWS V14.00,2013-05-08 07:26:00,
2013-05-08 01:31:00,58.3,30.8,34.55,NNE,27,14.5,14.5,35,0.00,,BKN200,0.00,VWS V14.00,2013-05-08 07:31:00,
2013-05-08 01:36:00,58.3,30.8,34.55,NNE,14,8.1,17.0,35,0.00,,BKN200,0.00,VWS V14.00,2013-05-08 07:36:00,
2013-05-08 01:40:00,58.1,30.6,34.55,ENE,67,12.8,19.2,35,0.00,,BKN200,0.00,VWS V14.00,2013-05-08 07:40:00,
2013-05-08 01:45:00,57.9,30.5,34.55,North,8,3.6,19.2,35,0.00,,BKN200,0.00,VWS V14.00,2013-05-08 07:45:00,
2013-05-08 01:50:00,57.7,30.3,34.55,East,86,6.3,19.2,35,0.00,,BKN200,0.00,VWS V14.00,2013-05-08 07:50:00,
2013-05-08 01:55:00,57.4,30.7,34.55,ENE,58,4.0,19.2,36,0.00,,BKN200,0.00,VWS V14.00,2013-05-08 07:55:00,
2013-05-08 02:00:00,57.0,30.4,34.55,NE,48,11.4,11.4,36,0.00,,BKN200,0.00,VWS V14.00,2013-05-08 08:00:00,
2013-05-08 02:05:00,56.7,30.0,34.55,ENE,58,11.4,13.2,36,0.00,,BKN200,0.00,VWS V14.00,2013-05-08 08:05:00,
2013-05-08 02:10:00,56.5,29.9,34.55,North,9,8.7,13.2,36,0.00,,BKN200,0.00,VWS V14.00,2013-05-08 08:10:00,
2013-05-08 02:15:00,56.3,29.7,34.55,North,357,11.0,13.2,36,0.00,,BKN200,0.00,VWS V14.00,2013-05-08 08:15:00,
2013-05-08 02:20:00,55.9,30.1,34.55,North,9,7.6,15.4,37,0.00,,BKN200,0.00,VWS V14.00,2013-05-08 08:20:00,
2013-05-08 02:25:00,55.8,29.9,34.55,NNE,20,8.1,15.4,37,0.00,,BKN200,0.00,VWS V14.00,2013-05-08 08:25:00,
2013-05-08 02:30:00,55.6,29.7,34.55,NNW,331,10.1,10.1,37,0.00,,BKN200,0.00,VWS V14.00,2013-05-08 08:30:00,
2013-05-08 02:35:00,55.2,29.4,34.55,NNW,333,2.7,13.2,37,0.00,,BKN200,0.00,VWS V14.00,2013-05-08 08:35:00,
2013-05-08 02:40:00,55.0,29.3,34.55,NNW,342,8.3,13.2,37,0.00,,BKN200,0.00,VWS V14.00,2013-05-08 08:40:00,
2013-05-08 02:45:00,54.9,29.8,34.55,NW,323,6.3,13.2,38,0.00,,BKN200,0.00,VWS V14.00,2013-05-08 08:45:00,
2013-05-08 02:50:00,54.7,29.6,34.55,NNE,33,5.8,13.2,38,0.00,,BKN200,0.00,VWS V14.00,2013-05-08 08:50:00,
2013-05-08 02:55:00,54.5,29.4,34.55,NNW,337,9.6,13.2,38,0.00,,BKN200,0.00,VWS V14.00,2013-05-08 08:55:00,
2013-05-08 03:00:00,54.5,29.4,34.55,West,279,2.7,8.7,38,0.00,,BKN200,0.00,VWS V14.00,2013-05-08 09:00:00,
2013-05-08 03:05:00,54.5,29.4,34.55,SW,218,4.9,12.8,38,0.00,,BKN200,0.00,VWS V14.00,2013-05-08 09:05:00,
2013-05-08 03:10:00,54.3,29.3,34.55,WNW,301,6.3,12.8,38,0.00,,BKN200,0.00,VWS V14.00,2013-05-08 09:10:00,
2013-05-08 03:15:00,54.0,29.0,34.55,WNW,296,8.1,12.8,38,0.00,,BKN200,0.00,VWS V14.00,2013-05-08 09:15:00,
2013-05-08 03:20:00,54.0,29.0,34.55,NW,312,6.3,12.8,38,0.00,,BKN200,0.00,VWS V14.00,2013-05-08 09:20:00,
2013-05-08 03:25:00,53.8,29.4,34.55,WSW,244,4.0,12.8,39,0.00,,BKN200,0.00,VWS V14.00,2013-05-08 09:25:00,
2013-05-08 03:30:00,53.4,29.1,34.55,WSW,250,8.1,8.1,39,0.00,,BKN200,0.00,VWS V14.00,2013-05-08 09:30:00,
2013-05-08 03:35:00,53.2,29.6,34.55,West,266,3.6,8.3,40,0.00,,BKN200,0.00,VWS V14.00,2013-05-08 09:35:00,
2013-05-08 03:40:00,53.1,30.0,34.55,West,265,0.0,8.3,41,0.00,,BKN200,0.00,VWS V14.00,2013-05-08 09:40:00,
2013-05-08 03:45:00,52.5,28.9,34.55,West,265,0.0,8.3,40,0.00,,BKN200,0.00,VWS V14.00,2013-05-08 09:45:00,
2013-05-08 03:50:00,52.0,29.0,34.55,West,265,0.0,8.3,41,0.00,,BKN200,0.00,VWS V14.00,2013-05-08 09:50:00,
2013-05-08 03:55:00,51.3,29.0,34.55,West,264,0.0,8.3,42,0.00,,BKN200,0.00,VWS V14.00,2013-05-08 09:55:00,
2013-05-08 04:00:00,50.9,29.8,34.55,West,265,4.0,4.0,44,0.00,,BKN200,0.00,VWS V14.00,2013-05-08 10:00:00,
2013-05-08 04:05:00,50.7,29.6,34.55,West,275,2.2,5.8,44,0.00,,BKN200,0.00,VWS V14.00,2013-05-08 10:05:00,
2013-05-08 04:10:00,50.5,30.0,34.55,West,279,0.0,5.8,45,0.00,,BKN200,0.00,VWS V14.00,2013-05-08 10:10:00,
2013-05-08 04:15:00,50.2,29.1,34.55,WNW,292,0.0,5.8,44,0.00,,BKN200,0.00,VWS V14.00,2013-05-08 10:15:00,
2013-05-08 04:20:00,49.8,29.9,34.55,West,268,3.1,5.8,46,0.00,,BKN200,0.00,VWS V14.00,2013-05-08 10:20:00,
2013-05-08 04:25:00,49.6,29.7,34.55,NNW,331,0.0,5.8,46,0.00,,BKN200,0.00,VWS V14.00,2013-05-08 10:25:00,
2013-05-08 04:30:00,49.5,29.6,34.55,NW,323,4.0,4.0,46,0.00,,BKN200,0.00,VWS V14.00,2013-05-08 10:30:00,
2013-05-08 04:35:00,49.3,29.9,34.55,NW,314,3.6,8.3,47,0.00,,BKN200,0.00,VWS V14.00,2013-05-08 10:35:00,
2013-05-08 04:40:00,49.1,29.8,34.55,NNW,337,7.6,11.0,47,0.00,,BKN200,0.00,VWS V14.00,2013-05-08 10:40:00,
2013-05-08 04:45:00,49.1,29.8,34.55,NNW,340,4.0,11.0,47,0.00,,BKN200,0.00,VWS V14.00,2013-05-08 10:45:00,
2013-05-08 04:50:00,48.9,29.6,34.55,NW,306,5.4,11.0,47,0.00,,BKN200,0.00,VWS V14.00,2013-05-08 10:50:00,
2013-05-08 04:55:00,48.7,29.4,34.55,North,7,8.1,12.3,47,0.00,,BKN200,0.00,VWS V14.00,2013-05-08 10:55:00,
2013-05-08 05:00:00,48.4,29.1,34.55,North,0,6.3,6.3,47,0.00,,BKN200,0.00,VWS V14.00,2013-05-08 11:00:00,
2013-05-08 05:05:00,48.2,29.5,34.55,NNW,337,5.8,10.5,48,0.00,,SCT120,0.00,VWS V14.00,2013-05-08 11:05:00,
2013-05-08 05:10:00,47.8,29.1,34.55,NNW,333,8.3,12.3,48,0.00,,SCT120,0.00,VWS V14.00,2013-05-08 11:10:00,
2013-05-08 05:15:00,47.8,29.6,34.55,North,357,8.1,13.2,49,0.00,,SCT120,0.00,VWS V14.00,2013-05-08 11:15:00,
2013-05-08 05:20:00,47.7,29.5,34.55,NNW,340,11.0,13.2,49,0.00,,SCT120,0.00,VWS V14.00,2013-05-08 11:20:00,
2013-05-08 05:25:00,47.7,29.5,34.55,North,353,8.7,13.2,49,0.00,,SCT120,0.00,VWS V14.00,2013-05-08 11:25:00,
2013-05-08 05:30:00,47.7,29.5,34.55,North,7,11.0,11.0,49,0.00,,SCT120,0.00,VWS V14.00,2013-05-08 11:30:00,
2013-05-08 05:35:00,47.7,29.5,34.55,NW,322,6.3,11.0,49,0.00,,SCT120,0.00,VWS V14.00,2013-05-08 11:35:00,
2013-05-08 05:40:00,47.3,29.1,34.55,North,353,8.7,12.3,49,0.00,,SCT120,0.00,VWS V14.00,2013-05-08 11:40:00,
2013-05-08 05:45:00,47.3,29.1,34.55,NNW,330,8.3,14.5,49,0.00,,SCT120,0.00,VWS V14.00,2013-05-08 11:45:00,
2013-05-08 05:50:00,47.1,29.0,34.55,North,353,9.2,14.5,49,0.00,,SCT120,0.00,VWS V14.00,2013-05-08 11:50:00,
2013-05-08 05:55:00,47.1,29.5,34.55,NNW,344,8.3,14.5,50,0.00,,SCT120,0.00,VWS V14.00,2013-05-08 11:55:00,
2013-05-08 06:00:00,46.9,29.3,34.55,NNW,348,8.3,8.3,50,0.00,,SCT120,0.00,VWS V14.00,2013-05-08 12:00:00,
2013-05-08 06:05:00,46.9,29.3,34.55,NNW,334,8.3,13.2,50,0.00,,SCT100,0.00,VWS V14.00,2013-05-08 12:05:00,
2013-05-08 06:10:00,47.1,29.5,34.55,North,1,8.7,13.2,50,0.00,,SCT100,0.00,VWS V14.00,2013-05-08 12:10:00,
2013-05-08 06:15:00,47.1,29.5,34.55,North,8,8.7,13.2,50,0.00,,SCT100,0.00,VWS V14.00,2013-05-08 12:15:00,
2013-05-08 06:20:00,47.1,29.5,34.55,NNW,346,6.7,13.2,50,0.00,,SCT100,0.00,VWS V14.00,2013-05-08 12:20:00,
2013-05-08 06:25:00,47.1,29.5,34.55,North,4,5.8,13.2,50,0.00,,SCT100,0.00,VWS V14.00,2013-05-08 12:25:00,
2013-05-08 06:30:00,47.3,29.6,34.55,North,357,3.6,5.4,50,0.00,,SCT100,0.00,VWS V14.00,2013-05-08 12:30:00,
2013-05-08 06:35:00,47.7,30.0,34.55,NNW,348,5.8,10.1,50,0.00,,SCT100,0.00,VWS V14.00,2013-05-08 12:35:00,
2013-05-08 06:40:00,48.0,29.8,34.55,North,357,3.6,10.5,49,0.00,,SCT100,0.00,VWS V14.00,2013-05-08 12:40:00,
2013-05-08 06:45:00,48.2,30.0,34.55,North,357,5.8,10.5,49,0.00,,SCT100,0.00,VWS V14.00,2013-05-08 12:45:00,
2013-05-08 06:50:00,48.4,29.6,34.55,NNW,344,7.6,10.5,48,0.00,,SCT100,0.00,VWS V14.00,2013-05-08 12:50:00,
2013-05-08 06:55:00,48.7,29.9,34.55,NNW,338,7.6,11.0,48,0.00,,SCT100,0.00,VWS V14.00,2013-05-08 12:55:00,
2013-05-08 07:00:00,48.7,29.9,34.55,NNW,342,6.3,7.6,48,0.00,,SCT100,0.00,VWS V14.00,2013-05-08 13:00:00,
2013-05-08 07:05:00,49.1,30.3,34.55,North,7,7.6,10.5,48,0.00,,BKN200,0.00,VWS V14.00,2013-05-08 13:05:00,
2013-05-08 07:10:00,49.3,29.9,34.55,NNE,32,8.1,10.5,47,0.00,,BKN200,0.00,VWS V14.00,2013-05-08 13:10:00,
2013-05-08 07:15:00,49.1,29.8,34.55,NNE,12,5.8,10.5,47,0.00,,BKN200,0.00,VWS V14.00,2013-05-08 13:15:00,
2013-05-08 07:20:00,49.1,29.8,34.55,NNW,340,8.3,10.5,47,0.00,,BKN200,0.00,VWS V14.00,2013-05-08 13:20:00,
2013-05-08 07:25:00,49.1,29.8,34.55,NNW,331,5.8,11.0,47,0.00,,BKN200,0.00,VWS V14.00,2013-05-08 13:25:00,
2013-05-08 07:30:00,49.5,29.6,34.55,North,353,8.3,12.3,46,0.00,,BKN200,0.00,VWS V14.00,2013-05-08 13:30:00,
2013-05-08 07:35:00,49.6,30.2,34.55,North,353,11.0,13.2,47,0.00,,BKN200,0.00,VWS V14.00,2013-05-08 13:35:00,
2013-05-08 07:40:00,50.0,29.5,34.55,North,357,5.8,13.2,45,0.00,,BKN200,0.00,VWS V14.00,2013-05-08 13:40:00,
2013-05-08 07:45:00,50.0,29.5,34.55,NNW,341,4.9,13.2,45,0.00,,BKN200,0.00,VWS V14.00,2013-05-08 13:45:00,
2013-05-08 07:50:00,50.0,29.5,34.55,North,6,5.8,13.2,45,0.00,,BKN200,0.00,VWS V14.00,2013-05-08 13:50:00,
2013-05-08 07:55:00,50.4,29.8,34.55,North,357,5.8,13.2,45,0.00,,BKN200,0.00,VWS V14.00,2013-05-08 13:55:00,
2013-05-08 08:00:00,50.9,30.3,34.55,NNE,18,5.4,13.2,45,0.00,,BKN200,0.00,VWS V14.00,2013-05-08 14:00:00,
2013-05-08 08:05:00,51.4,29.7,34.55,North,357,4.0,10.1,43,0.00,,BKN200,0.00,VWS V14.00,2013-05-08 14:05:00,
2013-05-08 08:10:00,51.8,30.0,34.55,North,357,4.0,10.1,43,0.00,,BKN200,0.00,VWS V14.00,2013-05-08 14:10:00,
2013-05-08 08:15:00,52.3,30.0,34.55,NNE,18,4.9,10.1,42,0.00,,BKN200,0.00,VWS V14.00,2013-05-08 14:15:00,
2013-05-08 08:20:00,52.7,30.3,34.55,NNW,335,7.6,10.1,42,0.00,,BKN200,0.00,VWS V14.00,2013-05-08 14:20:00,
2013-05-08 08:25:00,53.2,30.2,34.55,NNE,20,5.4,10.1,41,0.00,,BKN200,0.00,VWS V14.00,2013-05-08 14:25:00,
2013-05-08 08:30:00,53.6,30.5,34.55,NE,41,2.7,10.1,41,0.00,,BKN200,0.00,VWS V14.00,2013-05-08 14:30:00,
2013-05-08 08:35:00,54.3,31.1,34.55,NW,316,3.6,5.4,41,0.00,,BKN200,0.00,VWS V14.00,2013-05-08 14:35:00,
2013-05-08 08:40:00,55.0,30.5,34.55,NNW,332,7.6,7.6,39,0.00,,BKN200,0.00,VWS V14.00,2013-05-08 14:40:00,
2013-05-08 08:45:00,55.4,30.2,34.55,NNW,331,3.1,8.3,38,0.00,,BKN200,0.00,VWS V14.00,2013-05-08 14:45:00,
2013-05-08 08:50:00,55.6,30.4,34.55,NE,36,6.3,8.3,38,0.00,,BKN200,0.00,VWS V14.00,2013-05-08 14:50:00,
2013-05-08 08:55:00,55.9,30.1,34.55,NNW,345,3.1,8.3,37,0.00,,BKN200,0.00,VWS V14.00,2013-05-08 14:55:00,
2013-05-08 09:00:00,56.1,30.9,34.55,NNE,25,0.0,8.3,38,0.00,,BKN200,0.00,VWS V14.00,2013-05-08 15:00:00,
2013-05-08 09:05:00,56.3,31.0,34.55,NE,36,0.0,3.1,38,0.00,,SCT130,0.00,VWS V14.00,2013-05-08 15:05:00,
2013-05-08 09:10:00,56.8,30.9,34.55,NNE,23,0.0,3.1,37,0.00,,SCT130,0.00,VWS V14.00,2013-05-08 15:10:00,
2013-05-08 09:15:00,57.2,31.2,34.55,WNW,295,0.0,3.1,37,0.00,,SCT130,0.00,VWS V14.00,2013-05-08 15:15:00,
2013-05-08 09:20:00,58.1,31.3,34.55,ENE,65,4.9,5.8,36,0.00,,SCT130,0.00,VWS V14.00,2013-05-08 15:20:00,
2013-05-08 09:25:00,58.6,31.8,34.55,East,88,2.2,5.8,36,0.00,,SCT130,0.00,VWS V14.00,2013-05-08 15:25:00,
2013-05-08 09:30:00,59.2,31.6,34.55,East,89,0.0,5.8,35,0.00,,SCT130,0.00,VWS V14.00,2013-05-08 15:30:00,
2013-05-08 09:35:00,59.7,32.0,34.55,East,89,0.0,0.0,35,0.00,,SCT130,0.00,VWS V14.00,2013-05-08 15:35:00,
2013-05-08 09:40:00,60.4,32.7,34.55,West,263,3.1,5.8,35,0.00,,SCT130,0.00,VWS V14.00,2013-05-08 15:40:00,
2013-05-08 09:45:00,60.8,33.0,34.55,SSW,209,5.8,5.8,35,0.00,,SCT130,0.00,VWS V14.00,2013-05-08 15:45:00,
2013-05-08 09:50:00,61.5,33.6,34.55,SSW,196,4.0,6.3,35,0.00,,SCT130,0.00,VWS V14.00,2013-05-08 15:50:00,
2013-05-08 09:55:00,62.1,33.4,34.55,SSW,193,3.6,6.3,34,0.00,,SCT130,0.00,VWS V14.00,2013-05-08 15:55:00,
2013-05-08 10:00:00,62.4,33.7,34.55,SSW,194,0.0,6.3,34,0.00,,SCT130,0.00,VWS V14.00,2013-05-08 16:00:00,
2013-05-08 10:05:00,62.8,34.0,34.55,SSW,194,4.0,4.0,34,0.00,,SCT200,0.00,VWS V14.00,2013-05-08 16:05:00,
2013-05-08 10:10:00,62.8,34.0,34.55,West,261,0.0,4.0,34,0.00,,SCT200,0.00,VWS V14.00,2013-05-08 16:10:00,
2013-05-08 10:15:00,63.0,33.4,34.55,West,263,0.0,4.0,33,0.00,,SCT200,0.00,VWS V14.00,2013-05-08 16:15:00,
2013-05-08 10:20:00,63.1,34.3,34.55,SW,231,2.2,6.3,34,0.00,,SCT200,0.00,VWS V14.00,2013-05-08 16:20:00,
2013-05-08 10:25:00,63.5,33.9,34.55,SW,231,0.0,6.3,33,0.00,,SCT200,0.00,VWS V14.00,2013-05-08 16:25:00,
2013-05-08 10:30:00,64.0,34.4,34.55,NNE,23,5.8,6.3,33,0.00,,SCT200,0.00,VWS V14.00,2013-05-08 16:30:00,
2013-05-08 10:34:00,63.9,34.2,34.55,NNE,23,4.0,5.8,33,0.00,,SCT200,0.00,VWS V14.00,2013-05-08 16:34:00,
2013-05-08 10:39:00,64.2,34.5,34.55,NE,34,5.4,5.8,33,0.00,,SCT200,0.00,VWS V14.00,2013-05-08 16:39:00,
2013-05-08 10:44:00,64.8,34.2,34.55,NNW,331,0.0,5.8,32,0.00,,SCT200,0.00,VWS V14.00,2013-05-08 16:44:00,
2013-05-08 10:49:00,65.3,35.5,34.55,NE,54,0.0,5.8,33,0.00,,SCT200,0.00,VWS V14.00,2013-05-08 16:49:00,
2013-05-08 10:54:00,65.8,35.2,34.55,NE,56,0.0,5.8,32,0.00,,SCT200,0.00,VWS V14.00,2013-05-08 16:54:00,
2013-05-08 10:59:00,66.7,35.2,34.55,ENE,64,0.0,5.8,31,0.00,,SCT200,0.00,VWS V14.00,2013-05-08 16:59:00,
2013-05-08 11:04:00,67.5,35.8,34.55,SSW,196,3.6,4.0,31,0.00,,SCT200,0.00,VWS V14.00,2013-05-08 17:04:00,
2013-05-08 11:09:00,68.0,35.4,34.55,SSE,148,4.0,7.6,30,0.00,,SCT200,0.00,VWS V14.00,2013-05-08 17:09:00,
2013-05-08 11:14:00,68.2,34.7,34.55,NNE,27,4.0,7.6,29,0.00,,SCT200,0.00,VWS V14.00,2013-05-08 17:14:00,
2013-05-08 11:19:00,67.8,33.5,34.55,North,0,0.0,7.6,28,0.00,,SCT200,0.00,VWS V14.00,2013-05-08 17:19:00,
2013-05-08 11:24:00,67.8,34.4,34.55,NNW,334,3.1,7.6,29,0.00,,SCT200,0.00,VWS V14.00,2013-05-08 17:24:00,
2013-05-08 11:29:00,68.2,34.7,34.55,North,0,4.0,7.6,29,0.00,,SCT200,0.00,VWS V14.00,2013-05-08 17:29:00,
2013-05-08 11:34:00,68.4,34.0,34.55,NNW,345,7.2,7.2,28,0.00,,SCT200,0.00,VWS V14.00,2013-05-08 17:34:00,
2013-05-08 11:39:00,68.2,33.0,34.55,NE,42,5.8,13.2,27,0.00,,SCT200,0.00,VWS V14.00,2013-05-08 17:39:00,
2013-05-08 11:44:00,68.4,33.1,34.55,NE,54,4.0,13.2,27,0.00,,SCT200,0.00,VWS V14.00,2013-05-08 17:44:00,
2013-05-08 11:49:00,68.4,33.1,34.55,ENE,60,3.6,13.2,27,0.00,,SCT200,0.00,VWS V14.00,2013-05-08 17:49:00,
2013-05-08 11:54:00,68.2,33.0,34.55,East,83,4.0,13.2,27,0.00,,SCT200,0.00,VWS V14.00,2013-05-08 17:54:00,
2013-05-08 11:59:00,68.4,33.1,34.55,NE,41,10.1,13.2,27,0.00,,SCT200,0.00,VWS V14.00,2013-05-08 17:59:00,
2013-05-08 12:04:00,68.5,33.3,34.55,NW,305,7.6,9.2,27,0.00,,SCT200,0.00,VWS V14.00,2013-05-08 18:04:00,
2013-05-08 12:09:00,68.7,32.5,34.55,NNW,337,6.3,9.2,26,0.00,,SCT200,0.00,VWS V14.00,2013-05-08 18:09:00,
2013-05-08 12:14:00,69.1,33.7,34.55,NNW,332,5.4,9.2,27,0.00,,SCT200,0.00,VWS V14.00,2013-05-08 18:14:00,
2013-05-08 12:19:00,69.8,33.4,34.55,ENE,67,0.0,9.2,26,0.00,,SCT200,0.00,VWS V14.00,2013-05-08 18:19:00,
2013-05-08 12:24:00,70.5,34.0,34.55,NE,46,8.1,12.8,26,0.00,,SCT200,0.00,VWS V14.00,2013-05-08 18:24:00,
2013-05-08 12:29:00,70.3,32.9,34.55,East,84,2.7,12.8,25,0.00,,SCT200,0.00,VWS V14.00,2013-05-08 18:29:00,
2013-05-08 12:34:00,70.0,33.5,34.55,North,10,6.3,6.3,26,0.00,,SCT200,0.00,VWS V14.00,2013-05-08 18:34:00,
2013-05-08 12:39:00,70.2,32.7,34.55,NNW,338,3.1,8.3,25,0.00,,SCT200,0.00,VWS V14.00,2013-05-08 18:39:00,
2013-05-08 12:44:00,70.7,33.2,34.55,NW,321,3.1,8.3,25,0.00,,SCT200,0.00,VWS V14.00,2013-05-08 18:44:00,
2013-05-08 12:49:00,71.1,34.5,34.55,NNW,345,5.8,11.0,26,0.00,,SCT200,0.00,VWS V14.00,2013-05-08 18:49:00,
2013-05-08 12:54:00,70.5,33.0,34.55,NNE,32,2.7,11.0,25,0.00,,SCT200,0.00,VWS V14.00,2013-05-08 18:54:00,
2013-05-08 12:59:00,70.5,33.0,34.55,South,173,3.6,11.0,25,0.00,,SCT200,0.00,VWS V14.00,2013-05-08 18:59:00,
2013-05-08 13:04:00,70.7,33.2,34.55,East,98,8.7,8.7,25,0.00,,SCT200,0.00,VWS V14.00,2013-05-08 19:04:00,
2013-05-08 13:09:00,70.3,32.9,34.55,NNE,17,5.8,10.1,25,0.00,,SCT200,0.00,VWS V14.00,2013-05-08 19:09:00,
2013-05-08 13:14:00,70.3,32.9,34.55,NNE,28,0.0,10.1,25,0.00,,SCT200,0.00,VWS V14.00,2013-05-08 19:14:00,
2013-05-08 13:19:00,70.2,32.7,34.55,East,91,0.0,10.1,25,0.00,,SCT200,0.00,VWS V14.00,2013-05-08 19:19:00,
2013-05-08 13:24:00,70.2,32.7,34.55,ENE,76,3.1,10.5,25,0.00,,SCT200,0.00,VWS V14.00,2013-05-08 19:24:00,
2013-05-08 13:29:00,70.5,33.0,34.55,North,6,3.6,10.5,25,0.00,,SCT200,0.00,VWS V14.00,2013-05-08 19:29:00,
2013-05-08 13:34:00,70.9,33.3,34.55,North,357,2.7,9.6,25,0.00,,SCT200,0.00,VWS V14.00,2013-05-08 19:34:00,
2013-05-08 13:39:00,70.5,33.0,34.55,NNE,15,4.0,12.3,25,0.00,,SCT200,0.00,VWS V14.00,2013-05-08 19:39:00,
2013-05-08 13:44:00,70.5,33.0,34.55,ESE,105,3.6,12.3,25,0.00,,SCT200,0.00,VWS V14.00,2013-05-08 19:44:00,
2013-05-08 13:49:00,70.7,33.2,34.55,NE,54,2.7,12.3,25,0.00,,SCT200,0.00,VWS V14.00,2013-05-08 19:49:00,
2013-05-08 13:54:00,70.9,33.3,34.55,NNE,20,5.4,12.3,25,0.00,,SCT200,0.00,VWS V14.00,2013-05-08 19:54:00,
2013-05-08 13:59:00,71.2,33.6,34.55,ESE,106,6.3,12.3,25,0.00,,SCT200,0.00,VWS V14.00,2013-05-08 19:59:00,
2013-05-08 14:04:00,70.9,33.3,34.55,NNE,29,6.7,8.7,25,0.00,,BKN200,0.00,VWS V14.00,2013-05-08 20:04:00,
2013-05-08 14:09:00,71.4,33.8,34.55,ESE,104,5.4,8.7,25,0.00,,BKN200,0.00,VWS V14.00,2013-05-08 20:09:00,
2013-05-08 14:14:00,71.6,32.9,34.55,East,93,8.1,9.6,24,0.00,,BKN200,0.00,VWS V14.00,2013-05-08 20:14:00,
2013-05-08 14:19:00,71.1,33.5,34.55,SE,138,4.0,11.0,25,0.00,,BKN200,0.00,VWS V14.00,2013-05-08 20:19:00,
2013-05-08 14:24:00,70.9,33.3,34.55,East,94,5.4,11.0,25,0.00,,BKN200,0.00,VWS V14.00,2013-05-08 20:24:00,
2013-05-08 14:29:00,71.1,33.5,34.55,NNE,21,0.0,11.0,25,0.00,,BKN200,0.00,VWS V14.00,2013-05-08 20:29:00,
2013-05-08 14:34:00,71.2,33.6,34.55,NE,38,5.8,11.9,25,0.00,,BKN200,0.00,VWS V14.00,2013-05-08 20:34:00,
2013-05-08 14:39:00,71.4,33.8,34.55,ESE,118,7.6,11.9,25,0.00,,BKN200,0.00,VWS V14.00,2013-05-08 20:39:00,
2013-05-08 14:44:00,71.4,33.8,34.55,ENE,71,9.2,11.9,25,0.00,,BKN200,0.00,VWS V14.00,2013-05-08 20:44:00,
2013-05-08 14:49:00,71.1,33.5,34.55,ENE,76,10.5,11.9,25,0.00,,BKN200,0.00,VWS V14.00,2013-05-08 20:49:00,
2013-05-08 14:54:00,71.4,33.8,34.55,SE,137,5.8,11.9,25,0.00,,BKN200,0.00,VWS V14.00,2013-05-08 20:54:00,
2013-05-08 14:59:00,71.8,33.1,34.55,SE,126,6.3,11.9,24,0.00,,BKN200,0.00,VWS V14.00,2013-05-08 20:59:00,
2013-05-08 15:04:00,71.8,33.1,34.55,East,84,6.7,8.3,24,0.00,,BKN200,0.00,VWS V14.00,2013-05-08 21:04:00,
2013-05-08 15:09:00,71.2,32.6,34.55,North,0,5.8,10.1,24,0.00,,BKN200,0.00,VWS V14.00,2013-05-08 21:09:00,
2013-05-08 15:14:00,70.7,32.2,34.55,ENE,64,5.4,10.1,24,0.00,,BKN200,0.00,VWS V14.00,2013-05-08 21:14:00,
2013-05-08 15:19:00,70.7,32.2,34.55,NNE,15,6.3,10.1,24,0.00,,BKN200,0.00,VWS V14.00,2013-05-08 21:19:00,
2013-05-08 15:24:00,70.9,33.3,34.55,ESE,102,8.1,10.1,25,0.00,,BKN200,0.00,VWS V14.00,2013-05-08 21:24:00,
2013-05-08 15:29:00,70.9,33.3,34.55,East,93,0.0,10.1,25,0.00,,BKN200,0.00,VWS V14.00,2013-05-08 21:29:00,
2013-05-08 15:34:00,71.1,33.5,34.55,ENE,61,7.2,8.1,25,0.00,,BKN200,0.00,VWS V14.00,2013-05-08 21:34:00,
2013-05-08 15:39:00,71.1,33.5,34.55,ENE,68,5.4,8.7,25,0.00,,BKN200,0.00,VWS V14.00,2013-05-08 21:39:00,
2013-05-08 15:44:00,70.9,33.3,34.55,East,83,5.8,8.7,25,0.00,,BKN200,0.00,VWS V14.00,2013-05-08 21:44:00,
2013-05-08 15:49:00,70.9,32.3,34.55,East,100,5.8,8.7,24,0.00,,BKN200,0.00,VWS V14.00,2013-05-08 21:49:00,
2013-05-08 15:54:00,70.7,33.2,34.55,SE,125,5.4,8.7,25,0.00,,BKN200,0.00,VWS V14.00,2013-05-08 21:54:00,
2013-05-08 15:59:00,70.7,33.2,34.55,ESE,119,7.2,8.7,25,0.00,,BKN200,0.00,VWS V14.00,2013-05-08 21:59:00,
2013-05-08 16:04:00,70.7,33.2,34.55,ENE,77,8.7,10.5,25,0.00,,BKN200,0.00,VWS V14.00,2013-05-08 22:04:00,
2013-05-08 16:09:00,70.5,32.0,34.55,SE,138,4.9,10.5,24,0.00,,BKN200,0.00,VWS V14.00,2013-05-08 22:09:00,
2013-05-08 16:14:00,70.5,32.0,34.55,East,93,4.0,10.5,24,0.00,,BKN200,0.00,VWS V14.00,2013-05-08 22:14:00,
2013-05-08 16:19:00,70.7,33.2,34.55,NE,52,8.7,10.5,25,0.00,,BKN200,0.00,VWS V14.00,2013-05-08 22:19:00,
2013-05-08 16:24:00,70.7,33.2,34.55,NNE,18,8.7,10.5,25,0.00,,BKN200,0.00,VWS V14.00,2013-05-08 22:24:00,
2013-05-08 16:29:00,70.7,32.2,34.55,NE,55,6.3,10.5,24,0.00,,BKN200,0.00,VWS V14.00,2013-05-08 22:29:00,
2013-05-08 16:34:00,70.5,33.0,34.55,ENE,78,2.7,7.6,25,0.00,,BKN200,0.00,VWS V14.00,2013-05-08 22:34:00,
2013-05-08 16:39:00,70.3,32.9,34.55,SE,130,4.0,10.1,25,0.00,,BKN200,0.00,VWS V14.00,2013-05-08 22:39:00,
2013-05-08 16:44:00,70.3,32.9,34.55,ESE,111,7.6,10.1,25,0.00,,BKN200,0.00,VWS V14.00,2013-05-08 22:44:00,
2013-05-08 16:49:00,70.3,32.9,34.55,ENE,68,6.7,10.5,25,0.00,,BKN200,0.00,VWS V14.00,2013-05-08 22:49:00,
2013-05-08 16:54:00,70.2,32.7,34.55,East,80,8.3,10.5,25,0.00,,BKN200,0.00,VWS V14.00,2013-05-08 22:54:00,
2013-05-08 16:59:00,70.2,32.7,34.55,NNW,346,9.2,16.8,25,0.00,,BKN200,0.00,VWS V14.00,2013-05-08 22:59:00,
2013-05-08 17:04:00,70.2,32.7,34.55,East,82,6.7,10.5,25,0.00,,BKN200,0.00,VWS V14.00,2013-05-08 23:04:00,
2013-05-08 17:09:00,70.2,32.7,34.55,NE,44,3.6,10.5,25,0.00,,BKN200,0.00,VWS V14.00,2013-05-08 23:09:00,
2013-05-08 17:14:00,70.2,32.7,34.55,ENE,69,3.6,10.5,25,0.00,,BKN200,0.00,VWS V14.00,2013-05-08 23:14:00,
2013-05-08 17:19:00,70.2,32.7,34.55,East,82,5.8,13.2,25,0.00,,BKN200,0.00,VWS V14.00,2013-05-08 23:19:00,
2013-05-08 17:24:00,70.2,32.7,34.55,NE,54,8.3,13.2,25,0.00,,BKN200,0.00,VWS V14.00,2013-05-08 23:24:00,
2013-05-08 17:29:00,70.2,32.7,34.55,East,91,10.5,13.2,25,0.00,,BKN200,0.00,VWS V14.00,2013-05-08 23:29:00,
2013-05-08 17:34:00,70.0,32.6,34.55,East,89,4.9,10.1,25,0.00,,BKN200,0.00,VWS V14.00,2013-05-08 23:34:00,
2013-05-08 17:39:00,69.8,32.4,34.55,NNE,24,3.1,10.1,25,0.00,,BKN200,0.00,VWS V14.00,2013-05-08 23:39:00,
2013-05-08 17:44:00,70.0,32.6,34.55,East,97,6.3,10.1,25,0.00,,BKN200,0.00,VWS V14.00,2013-05-08 23:44:00,
2013-05-08 17:49:00,69.8,32.4,34.55,ENE,58,7.2,10.5,25,0.00,,BKN200,0.00,VWS V14.00,2013-05-08 23:49:00,
2013-05-08 17:54:00,69.6,33.2,34.55,ENE,71,7.6,10.5,26,0.00,,BKN200,0.00,VWS V14.00,2013-05-08 23:54:00,
2013-05-08 17:59:00,69.8,32.4,34.55,ENE,61,7.6,10.5,25,0.00,,BKN200,0.00,VWS V14.00,2013-05-08 23:59:00,
2013-05-08 18:04:00,69.6,32.3,34.55,ENE,60,4.5,8.7,25,0.00,,SCT200,0.00,VWS V14.00,2013-05-09 00:04:00,
2013-05-08 18:09:00,69.4,32.1,34.55,East,83,5.8,8.7,25,0.00,,SCT200,0.00,VWS V14.00,2013-05-09 00:09:00,
2013-05-08 18:14:00,69.4,32.1,34.55,NE,52,2.7,8.7,25,0.00,,SCT200,0.00,VWS V14.00,2013-05-09 00:14:00,
2013-05-08 18:19:00,69.3,32.9,34.55,NE,42,8.7,9.2,26,0.00,,SCT200,0.00,VWS V14.00,2013-05-09 00:19:00,
2013-05-08 18:24:00,69.3,32.0,34.55,ESE,106,3.6,9.6,25,0.00,,SCT200,0.00,VWS V14.00,2013-05-09 00:24:00,
2013-05-08 18:29:00,68.9,32.6,34.55,NE,37,8.3,9.6,26,0.00,,SCT200,0.00,VWS V14.00,2013-05-09 00:29:00,
2013-05-08 18:34:00,68.7,31.5,34.55,East,83,4.0,7.6,25,0.00,,SCT200,0.00,VWS V14.00,2013-05-09 00:34:00,
2013-05-08 18:39:00,68.9,31.7,34.55,East,101,6.3,7.6,25,0.00,,SCT200,0.00,VWS V14.00,2013-05-09 00:39:00,
2013-05-08 18:44:00,68.9,31.7,34.55,ENE,69,4.9,8.3,25,0.00,,SCT200,0.00,VWS V14.00,2013-05-09 00:44:00,
2013-05-08 18:49:00,68.7,31.5,34.55,ENE,69,6.3,8.3,25,0.00,,SCT200,0.00,VWS V14.00,2013-05-09 00:49:00,
2013-05-08 18:54:00,68.7,31.5,34.55,ENE,62,7.6,10.1,25,0.00,,SCT200,0.00,VWS V14.00,2013-05-09 00:54:00,
2013-05-08 18:59:00,68.5,31.4,34.55,ENE,78,7.6,10.1,25,0.00,,SCT200,0.00,VWS V14.00,2013-05-09 00:59:00,
2013-05-08 19:04:00,68.5,32.3,34.55,ENE,63,9.2,9.2,26,0.00,,SCT200,0.00,VWS V14.00,2013-05-09 01:04:00,
2013-05-08 19:09:00,68.4,32.2,34.55,East,81,6.3,10.5,26,0.00,,SCT200,0.00,VWS V14.00,2013-05-09 01:09:00,
2013-05-08 19:14:00,68.2,32.0,34.55,East,79,5.8,10.5,26,0.00,,SCT200,0.00,VWS V14.00,2013-05-09 01:14:00,
2013-05-08 19:19:00,68.2,32.0,34.55,ESE,102,3.1,10.5,26,0.00,,SCT200,0.00,VWS V14.00,2013-05-09 01:19:00,
2013-05-08 19:24:00,68.0,31.9,34.55,East,79,6.3,10.5,26,0.00,,SCT200,0.00,VWS V14.00,2013-05-09 01:24:00,
2013-05-08 19:29:00,68.0,31.9,34.55,NE,49,4.0,10.5,26,0.00,,SCT200,0.00,VWS V14.00,2013-05-09 01:29:00,
2013-05-08 19:34:00,67.6,31.6,34.55,ENE,78,4.0,8.3,26,0.00,,SCT200,0.00,VWS V14.00,2013-05-09 01:34:00,
2013-05-08 19:39:00,67.6,31.6,34.55,ENE,69,8.1,8.7,26,0.00,,SCT200,0.00,VWS V14.00,2013-05-09 01:39:00,
2013-05-08 19:44:00,67.5,32.3,34.55,ENE,57,5.8,8.7,27,0.00,,SCT200,0.00,VWS V14.00,2013-05-09 01:44:00,
2013-05-08 19:49:00,67.3,31.2,34.55,ENE,57,6.3,9.2,26,0.00,,SCT200,0.00,VWS V14.00,2013-05-09 01:49:00,
2013-05-08 19:54:00,67.1,31.1,34.55,East,83,5.8,9.2,26,0.00,,SCT200,0.00,VWS V14.00,2013-05-09 01:54:00,
2013-05-08 19:59:00,66.9,31.9,34.55,NE,39,6.3,9.2,27,0.00,,SCT200,0.00,VWS V14.00,2013-05-09 01:59:00,
2013-05-08 20:04:00,66.7,31.7,34.55,ENE,75,5.4,8.3,27,0.00,,SCT200,0.00,VWS V14.00,2013-05-09 02:04:00,
2013-05-08 20:09:00,66.6,31.6,34.55,NE,37,6.3,8.3,27,0.00,,SCT200,0.00,VWS V14.00,2013-05-09 02:09:00,
2013-05-08 20:14:00,66.0,31.1,34.55,NE,35,3.6,8.3,27,0.00,,SCT200,0.00,VWS V14.00,2013-05-09 02:14:00,
2013-05-08 20:19:00,65.7,30.8,34.55,NE,34,3.1,8.3,27,0.00,,SCT200,0.00,VWS V14.00,2013-05-09 02:19:00,
2013-05-08 20:24:00,65.3,31.4,34.55,ENE,71,2.7,8.7,28,0.00,,SCT200,0.00,VWS V14.00,2013-05-09 02:24:00,
2013-05-08 20:29:00,64.9,31.1,34.55,NE,34,4.0,8.7,28,0.00,,SCT200,0.00,VWS V14.00,2013-05-09 02:29:00,
2013-05-08 20:34:00,64.6,30.8,34.55,NE,34,5.4,6.3,28,0.00,,SCT200,0.00,VWS V14.00,2013-05-09 02:34:00,
2013-05-08 20:39:00,64.2,31.3,34.55,NE,38,4.9,6.3,29,0.00,,SCT200,0.00,VWS V14.00,2013-05-09 02:39:00,
2013-05-08 20:44:00,64.0,31.2,34.55,NE,49,3.1,8.3,29,0.00,,SCT200,0.00,VWS V14.00,2013-05-09 02:44:00,
2013-05-08 20:49:00,63.7,31.7,34.55,ENE,64,4.9,8.3,30,0.00,,SCT200,0.00,VWS V14.00,2013-05-09 02:49:00,
2013-05-08 20:54:00,63.5,31.5,34.55,ENE,59,3.6,8.3,30,0.00,,SCT200,0.00,VWS V14.00,2013-05-09 02:54:00,
2013-05-08 20:59:00,63.5,32.3,34.55,NE,47,5.4,8.3,31,0.00,,SCT200,0.00,VWS V14.00,2013-05-09 02:59:00,
2013-05-08 21:04:00,63.1,32.0,34.55,ENE,60,2.7,4.9,31,0.00,,FEW200,0.00,VWS V14.00,2013-05-09 03:04:00,
2013-05-08 21:09:00,63.1,32.0,34.55,ENE,57,2.2,7.6,31,0.00,,FEW200,0.00,VWS V14.00,2013-05-09 03:09:00,
2013-05-08 21:14:00,63.0,31.9,34.55,NE,35,4.0,7.6,31,0.00,,FEW200,0.00,VWS V14.00,2013-05-09 03:14:00,
2013-05-08 21:19:00,62.8,32.5,34.55,NE,51,4.0,7.6,32,0.00,,FEW200,0.00,VWS V14.00,2013-05-09 03:19:00,
2013-05-08 21:24:00,62.6,32.3,34.55,ENE,61,6.3,8.7,32,0.00,,FEW200,0.00,VWS V14.00,2013-05-09 03:24:00,
2013-05-08 21:29:00,62.6,32.3,34.55,NE,55,6.3,12.3,32,0.00,,FEW200,0.00,VWS V14.00,2013-05-09 03:29:00,
2013-05-08 21:34:00,62.6,32.3,34.55,NE,54,8.1,8.1,32,0.00,,FEW200,0.00,VWS V14.00,2013-05-09 03:34:00,
2013-05-08 21:39:00,62.4,33.0,34.55,ENE,58,6.7,11.0,33,0.00,,FEW200,0.00,VWS V14.00,2013-05-09 03:39:00,
2013-05-08 21:44:00,62.4,33.7,34.55,ENE,58,5.8,11.0,34,0.00,,FEW200,0.00,VWS V14.00,2013-05-09 03:44:00,
2013-05-08 21:49:00,62.2,32.8,34.55,ENE,73,5.8,11.0,33,0.00,,FEW200,0.00,VWS V14.00,2013-05-09 03:49:00,
2013-05-08 21:54:00,62.2,32.8,34.55,NE,47,8.3,11.0,33,0.00,,FEW200,0.00,VWS V14.00,2013-05-09 03:54:00,
2013-05-08 21:59:00,62.1,32.6,34.55,NE,48,10.5,13.2,33,0.00,,FEW200,0.00,VWS V14.00,2013-05-09 03:59:00,
2013-05-08 22:01:00,62.1,32.6,34.55,NE,43,6.3,8.1,33,0.00,,FEW200,0.00,VWS V14.00,2013-05-09 04:01:00,
2013-05-08 22:06:00,61.9,33.2,34.55,ENE,78,5.4,10.5,34,0.00,,FEW200,0.00,VWS V14.00,2013-05-09 04:06:00,
2013-05-08 22:11:00,61.7,33.1,34.55,ENE,64,8.7,12.3,34,0.00,,FEW200,0.00,VWS V14.00,2013-05-09 04:11:00,
2013-05-08 22:16:00,61.7,33.1,34.55,NNE,33,5.8,12.8,34,0.00,,FEW200,0.00,VWS V14.00,2013-05-09 04:16:00,
2013-05-08 22:21:00,61.5,32.9,34.55,NNE,32,6.3,12.8,34,0.00,,FEW200,0.00,VWS V14.00,2013-05-09 04:21:00,
2013-05-08 22:26:00,61.3,32.8,34.55,NE,55,7.6,12.8,34,0.00,,FEW200,0.00,VWS V14.00,2013-05-09 04:26:00,
2013-05-08 22:31:00,61.0,32.4,34.55,NNE,23,5.8,5.8,34,0.00,,FEW200,0.00,VWS V14.00,2013-05-09 04:31:00,
2013-05-08 22:36:00,60.4,32.7,34.55,NNE,14,6.3,8.1,35,0.00,,FEW200,0.00,VWS V14.00,2013-05-09 04:36:00,
2013-05-08 22:41:00,59.7,32.0,34.55,NNE,13,5.8,8.1,35,0.00,,FEW200,0.00,VWS V14.00,2013-05-09 04:41:00,
2013-05-08 22:46:00,59.4,31.7,34.55,NNE,26,10.5,10.5,35,0.00,,FEW200,0.00,VWS V14.00,2013-05-09 04:46:00,
2013-05-08 22:51:00,59.0,31.4,34.55,NNE,23,5.4,10.5,35,0.00,,FEW200,0.00,VWS V14.00,2013-05-09 04:51:00,
2013-05-08 22:56:00,58.8,32.0,34.55,NNE,18,4.5,10.5,36,0.00,,FEW200,0.00,VWS V14.00,2013-05-09 04:56:00,
2013-05-08 23:01:00,58.6,31.8,34.55,NNE,14,4.0,7.6,36,0.00,,FEW200,0.00,VWS V14.00,2013-05-09 05:01:00,
2013-05-08 23:06:00,58.3,31.5,34.55,NNE,14,4.9,10.5,36,0.00,,FEW200,0.00,VWS V14.00,2013-05-09 05:06:00,
2013-05-08 23:11:00,57.9,31.8,34.55,North,353,5.8,10.5,37,0.00,,FEW200,0.00,VWS V14.00,2013-05-09 05:11:00,
2013-05-08 23:16:00,57.9,31.8,34.55,NE,45,5.8,10.5,37,0.00,,FEW200,0.00,VWS V14.00,2013-05-09 05:16:00,
2013-05-08 23:21:00,57.7,31.7,34.55,NNE,25,8.7,11.0,37,0.00,,FEW200,0.00,VWS V14.00,2013-05-09 05:21:00,
2013-05-08 23:26:00,57.6,31.5,34.55,NE,34,7.6,11.0,37,0.00,,FEW200,0.00,VWS V14.00,2013-05-09 05:26:00,
2013-05-08 23:31:00,57.6,31.5,34.55,East,85,8.7,8.7,37,0.00,,FEW200,0.00,VWS V14.00,2013-05-09 05:31:00,
2013-05-08 23:36:00,57.4,31.3,34.55,NE,45,10.5,11.0,37,0.00,,FEW200,0.00,VWS V14.00,2013-05-09 05:36:00,
2013-05-08 23:41:00,57.2,31.2,34.55,NE,35,8.3,12.8,37,0.00,,FEW200,0.00,VWS V14.00,2013-05-09 05:41:00,
2013-05-08 23:46:00,56.8,31.5,34.55,NNE,16,10.5,12.8,38,0.00,,FEW200,0.00,VWS V14.00,2013-05-09 05:46:00,
2013-05-08 23:51:00,56.7,31.4,34.55,North,357,9.2,12.8,38,0.00,,FEW200,0.00,VWS V14.00,2013-05-09 05:51:00,
2013-05-08 23:56:00,56.5,31.2,34.55,NNE,31,13.2,13.2,38,0.00,,FEW200,0.00,VWS V14.00,2013-05-09 05:56:00,